Frenchville, ME

1:49 PM EDT on April 25, 2017 (GMT -0400)
Northern Aroostook Regional

Weather History for KFVE - August, 2012

Change the Weather History Date:

Friday, August 24, 2012

  Actual Average Record
Temperature  
Mean Temperature 63 °F 61 °F  
Max Temperature 75 °F 71 °F 82 °F (2014)
Min Temperature 50 °F 52 °F 41 °F (2001)
Degree Days  
Heating Degree Days 2    
Month to date heating degree days 14  
Since 1 July heating degree days 59  
Cooling Degree Days 0    
Month to date cooling degree days 70  
Year to date cooling degree days 177  
Growing Degree Days 13 (Base 50)    
Moisture  
Dew Point 50 °F    
Average Humidity 66    
Maximum Humidity 93    
Minimum Humidity 40    
Precipitation  
Precipitation 0.00 in 0.12 in 0.59 in (1998)
Month to date precipitation 2.40 3.02  
Year to date precipitation 19.66 21.08  
Sea Level Pressure  
Sea Level Pressure 30.17 in    
Wind  
Wind Speed 6 mph (NW)    
Max Wind Speed 14 mph    
Max Gust Speed 20 mph    
Visibility 10 miles    
Events      
T = Trace of Precipitation, MM = Missing Value Source: NWS Daily Summary

Daily Weather History Graph

Daily Weather History Graph

Search for Another Location

Airport or City:

Trip Planner

Search our weather history database for the weather conditions in past years. The results will help you decide how hot, cold, wet, or windy it might be!

Date:

Astronomy

Aug. 24, 2012 Rise Set
Actual Time 5:42 AM EDT 7:27 PM EDT
Civil Twilight 5:09 AM EDT 8:00 PM EDT
Nautical Twilight 4:29 AM EDT 8:39 PM EDT
Astronomical Twilight 3:46 AM EDT 9:22 PM EDT
Moon 2:06 PM EDT (8/24) 11:10 PM EDT (8/24)
Length of Visible Light 14h 50m
Length of Day
13h 45m
Waxing Crescent, 51% of the Moon is Illuminated
Aug 24
Waxing Crescent
Aug 31
Full
Sep 8
Last Quarter
Sep 15
New
Sep 22
First Quarter

Hourly Weather History & Observations

Time (EDT) Temp. Dew Point Humidity Pressure Visibility Wind Dir Wind Speed Gust Speed Precip Events Conditions
12:53 AM 57.9 °F 51.1 °F 78% 30.06 in 10.0 mi NW 10.4 mph - N/A   Clear
1:53 AM 57.0 °F 51.1 °F 81% 30.06 in 10.0 mi NW 8.1 mph - N/A   Clear
2:53 AM 55.9 °F 51.1 °F 84% 30.07 in 10.0 mi NW 9.2 mph - N/A   Clear
3:53 AM 54.0 °F 51.1 °F 90% 30.09 in 10.0 mi WNW 8.1 mph - N/A   Clear
4:53 AM 53.1 °F 51.1 °F 93% 30.09 in 10.0 mi WNW 4.6 mph - N/A   Clear
5:53 AM 53.1 °F 50.0 °F 89% 30.11 in 10.0 mi NW 8.1 mph - N/A   Clear
6:53 AM 55.9 °F 52.0 °F 87% 30.13 in 10.0 mi NNW 8.1 mph - N/A   Clear
7:53 AM 59.0 °F 53.1 °F 81% 30.15 in 10.0 mi NNW 8.1 mph - N/A   Clear
8:53 AM 62.1 °F 53.1 °F 72% 30.16 in 10.0 mi NW 8.1 mph - N/A   Partly Cloudy
9:53 AM 63.0 °F 53.1 °F 70% 30.17 in 10.0 mi North 11.5 mph - N/A   Clear
10:53 AM 66.0 °F 52.0 °F 60% 30.19 in 10.0 mi NNW 8.1 mph - N/A   Partly Cloudy
11:53 AM 68.0 °F 51.1 °F 55% 30.19 in 10.0 mi Variable 5.8 mph - N/A   Scattered Clouds
12:53 PM 70.0 °F 51.1 °F 51% 30.19 in 10.0 mi NW 9.2 mph - N/A   Scattered Clouds
1:53 PM 72.0 °F 48.9 °F 44% 30.18 in 10.0 mi NNW 11.5 mph 16.1 mph N/A   Partly Cloudy
2:53 PM 73.0 °F 50.0 °F 44% 30.19 in 10.0 mi NW 6.9 mph - N/A   Partly Cloudy
3:53 PM 70.0 °F 48.0 °F 46% 30.19 in 10.0 mi WNW 6.9 mph - N/A   Partly Cloudy
4:53 PM 72.0 °F 46.0 °F 40% 30.19 in 10.0 mi NW 4.6 mph - N/A   Clear
5:53 PM 72.0 °F 48.0 °F 43% 30.20 in 10.0 mi North 3.5 mph - N/A   Clear
6:53 PM 68.0 °F 50.0 °F 52% 30.21 in 10.0 mi NNW 4.6 mph - N/A   Clear
7:53 PM 64.0 °F 48.9 °F 58% 30.22 in 10.0 mi North 3.5 mph - N/A   Clear
8:53 PM 64.0 °F 48.9 °F 58% 30.23 in 10.0 mi Calm Calm - N/A   Clear
9:53 PM 61.0 °F 50.0 °F 67% 30.23 in 10.0 mi NNW 3.5 mph - N/A   Clear
10:53 PM 57.9 °F 50.0 °F 75% 30.24 in 10.0 mi NW 4.6 mph - N/A   Clear
11:53 PM 57.0 °F 50.0 °F 77% 30.25 in 10.0 mi Calm Calm - N/A   Clear